TimeEST,TemperatureF,Dew PointF,Humidity,Sea Level PressureIn,VisibilityMPH,Wind Direction,Wind SpeedMPH,Gust SpeedMPH,PrecipitationIn,Events,Conditions,WindDirDegrees,DateUTC
12:15 AM,44.6,39.2,81,30.40,10.0,Calm,Calm,-,N/A,,Overcast,0,2013-01-09 05:15:00
12:35 AM,44.6,39.2,81,30.40,10.0,Calm,Calm,-,N/A,,Overcast,0,2013-01-09 05:35:00
12:55 AM,44.6,39.2,81,30.40,10.0,Calm,Calm,-,N/A,,Overcast,0,2013-01-09 05:55:00
1:15 AM,44.6,39.2,81,30.39,10.0,Calm,Calm,-,N/A,,Overcast,0,2013-01-09 06:15:00
1:37 AM,44.6,39.2,81,30.39,10.0,Calm,Calm,-,N/A,,Overcast,0,2013-01-09 06:37:00
1:55 AM,44.6,39.2,81,30.39,10.0,ESE,4.6,-,N/A,,Overcast,120,2013-01-09 06:55:00
2:17 AM,44.6,39.2,81,30.39,10.0,Calm,Calm,-,N/A,,Overcast,0,2013-01-09 07:17:00
2:35 AM,44.6,39.2,81,30.39,10.0,Calm,Calm,-,N/A,,Mostly Cloudy,0,2013-01-09 07:35:00
2:55 AM,44.6,39.2,81,30.39,10.0,Calm,Calm,-,N/A,,Mostly Cloudy,0,2013-01-09 07:55:00
3:15 AM,44.6,39.2,81,30.39,10.0,Calm,Calm,-,N/A,,Overcast,0,2013-01-09 08:15:00
3:35 AM,44.6,39.2,81,30.40,10.0,Calm,Calm,-,N/A,,Overcast,0,2013-01-09 08:35:00
3:55 AM,44.6,39.2,81,30.40,10.0,Calm,Calm,-,N/A,,Overcast,0,2013-01-09 08:55:00
4:15 AM,44.6,39.2,81,30.39,10.0,Calm,Calm,-,N/A,,Overcast,0,2013-01-09 09:15:00
4:35 AM,44.6,39.2,81,30.39,10.0,Calm,Calm,-,N/A,,Overcast,0,2013-01-09 09:35:00
4:56 AM,44.6,39.2,81,30.38,10.0,Calm,Calm,-,N/A,,Scattered Clouds,0,2013-01-09 09:56:00
5:15 AM,42.8,39.2,87,30.37,10.0,Calm,Calm,-,N/A,,Clear,0,2013-01-09 10:15:00
5:35 AM,42.8,39.2,87,30.38,10.0,Calm,Calm,-,N/A,,Clear,0,2013-01-09 10:35:00
5:55 AM,41.0,37.4,87,30.37,10.0,Calm,Calm,-,N/A,,Clear,0,2013-01-09 10:55:00
6:15 AM,41.0,37.4,87,30.37,10.0,Calm,Calm,-,N/A,,Scattered Clouds,0,2013-01-09 11:15:00
6:35 AM,41.0,37.4,87,30.38,10.0,Calm,Calm,-,N/A,,Scattered Clouds,0,2013-01-09 11:35:00
6:55 AM,39.2,37.4,93,30.39,7.0,Calm,Calm,-,N/A,,Clear,0,2013-01-09 11:55:00
7:15 AM,39.2,37.4,93,30.39,7.0,Calm,Calm,-,N/A,,Clear,0,2013-01-09 12:15:00
7:35 AM,39.2,37.4,93,30.40,5.0,Calm,Calm,-,N/A,,Clear,0,2013-01-09 12:35:00
7:55 AM,39.2,37.4,93,30.41,7.0,Calm,Calm,-,N/A,,Clear,0,2013-01-09 12:55:00
8:15 AM,42.8,39.2,87,30.40,10.0,ESE,4.6,-,N/A,,Clear,120,2013-01-09 13:15:00
8:35 AM,46.4,42.8,87,30.41,10.0,Calm,Calm,-,N/A,,Clear,0,2013-01-09 13:35:00
8:55 AM,50.0,42.8,76,30.42,10.0,Calm,Calm,-,N/A,,Clear,0,2013-01-09 13:55:00
9:15 AM,53.6,44.6,72,30.41,10.0,Calm,Calm,-,N/A,,Clear,0,2013-01-09 14:15:00
9:35 AM,55.4,44.6,67,30.42,10.0,Calm,Calm,-,N/A,,Clear,0,2013-01-09 14:35:00
9:57 AM,57.2,44.6,63,30.41,10.0,ESE,3.5,-,N/A,,Clear,120,2013-01-09 14:57:00
10:15 AM,57.2,44.6,63,30.41,10.0,ESE,3.5,-,N/A,,Clear,120,2013-01-09 15:15:00
10:35 AM,60.8,46.4,59,30.40,10.0,ESE,5.8,-,N/A,,Clear,110,2013-01-09 15:35:00
10:55 AM,60.8,46.4,59,30.40,10.0,ESE,9.2,-,N/A,,Clear,110,2013-01-09 15:55:00
11:15 AM,62.6,46.4,55,30.38,10.0,ESE,8.1,-,N/A,,Clear,110,2013-01-09 16:15:00
11:35 AM,62.6,48.2,59,30.38,10.0,East,10.4,-,N/A,,Clear,100,2013-01-09 16:35:00
11:55 AM,64.4,48.2,56,30.36,10.0,East,12.7,16.1,N/A,,Clear,100,2013-01-09 16:55:00
12:15 PM,64.4,48.2,56,30.35,10.0,East,10.4,16.1,N/A,,Clear,100,2013-01-09 17:15:00
12:35 PM,66.2,48.2,52,30.33,10.0,East,11.5,-,N/A,,Clear,100,2013-01-09 17:35:00
12:56 PM,66.2,48.2,52,30.32,10.0,East,11.5,-,N/A,,Clear,100,2013-01-09 17:56:00
1:15 PM,66.2,48.2,52,30.31,10.0,East,11.5,-,N/A,,Clear,100,2013-01-09 18:15:00
1:35 PM,66.2,48.2,52,30.32,10.0,East,12.7,19.6,N/A,,Clear,100,2013-01-09 18:35:00
1:55 PM,64.4,48.2,56,30.31,10.0,East,13.8,19.6,N/A,,Clear,90,2013-01-09 18:55:00
2:15 PM,64.4,48.2,56,30.31,10.0,East,13.8,17.3,N/A,,Clear,90,2013-01-09 19:15:00
2:35 PM,64.4,48.2,56,30.32,10.0,East,11.5,-,N/A,,Clear,100,2013-01-09 19:35:00
2:55 PM,64.4,48.2,56,30.31,10.0,ESE,8.1,-,N/A,,Clear,110,2013-01-09 19:55:00
3:15 PM,64.4,48.2,56,30.31,10.0,ESE,8.1,-,N/A,,Clear,110,2013-01-09 20:15:00
3:35 PM,62.6,48.2,59,30.31,10.0,ESE,6.9,-,N/A,,Clear,110,2013-01-09 20:35:00
3:55 PM,62.6,48.2,59,30.32,10.0,East,6.9,-,N/A,,Clear,90,2013-01-09 20:55:00
4:15 PM,62.6,48.2,59,30.32,10.0,ESE,5.8,-,N/A,,Clear,110,2013-01-09 21:15:00
4:35 PM,62.6,50.0,63,30.32,10.0,ESE,5.8,-,N/A,,Clear,110,2013-01-09 21:35:00
4:56 PM,62.6,50.0,63,30.31,10.0,ESE,6.9,-,N/A,,Clear,110,2013-01-09 21:56:00
5:15 PM,60.8,50.0,68,30.31,10.0,ESE,5.8,-,N/A,,Clear,110,2013-01-09 22:15:00
5:35 PM,59.0,48.2,67,30.29,10.0,East,8.1,-,N/A,,Clear,100,2013-01-09 22:35:00
5:55 PM,57.2,48.2,72,30.28,10.0,East,9.2,-,N/A,,Clear,100,2013-01-09 22:55:00
6:15 PM,57.2,48.2,72,30.28,10.0,East,10.4,-,N/A,,Clear,100,2013-01-09 23:15:00
6:35 PM,55.4,48.2,77,30.30,10.0,ESE,6.9,-,N/A,,Clear,110,2013-01-09 23:35:00
6:55 PM,55.4,48.2,77,30.30,10.0,East,8.1,-,N/A,,Clear,100,2013-01-09 23:55:00
7:15 PM,55.4,48.2,77,30.30,10.0,ESE,5.8,-,N/A,,Clear,110,2013-01-10 00:15:00
7:35 PM,55.4,48.2,77,30.29,10.0,ESE,8.1,-,N/A,,Clear,110,2013-01-10 00:35:00
7:57 PM,55.4,48.2,77,30.29,10.0,ESE,8.1,-,N/A,,Clear,110,2013-01-10 00:57:00
8:15 PM,57.2,48.2,72,30.30,10.0,ESE,8.1,-,N/A,,Clear,110,2013-01-10 01:15:00
8:35 PM,62.6,48.2,59,30.30,10.0,East,11.5,17.3,N/A,,Clear,100,2013-01-10 01:35:00
8:55 PM,62.6,48.2,59,30.31,10.0,East,13.8,18.4,N/A,,Clear,100,2013-01-10 01:55:00
9:15 PM,62.6,48.2,59,30.31,10.0,East,12.7,19.6,N/A,,Clear,100,2013-01-10 02:15:00
9:35 PM,62.6,48.2,59,30.32,10.0,ESE,9.2,18.4,N/A,,Clear,110,2013-01-10 02:35:00
9:55 PM,62.6,48.2,59,30.32,10.0,ESE,10.4,-,N/A,,Clear,110,2013-01-10 02:55:00
10:15 PM,60.8,48.2,63,30.33,10.0,ESE,9.2,-,N/A,,Clear,110,2013-01-10 03:15:00
10:36 PM,59.0,48.2,67,30.34,10.0,ESE,8.1,-,N/A,,Clear,110,2013-01-10 03:36:00
10:55 PM,59.0,48.2,67,30.35,10.0,ESE,8.1,-,N/A,,Clear,110,2013-01-10 03:55:00
11:15 PM,57.2,48.2,72,30.35,10.0,ESE,5.8,-,N/A,,Clear,120,2013-01-10 04:15:00
11:35 PM,55.4,48.2,77,30.37,10.0,SE,8.1,-,N/A,,Clear,130,2013-01-10 04:35:00
11:55 PM,55.4,48.2,77,30.38,10.0,SE,5.8,-,N/A,,Clear,130,2013-01-10 04:55:00